RYS7003 EPKT-LTBS

Flight info

Callsign RYS7003
Flight time 2h 17m
Altitude 23000
Route REGTO T195 RAZEC/N0449F350 DCT KEKED DCT DVA DCT OSTOV DCT RODIP UN131 DUGLA UT350 NEXAM
Aircraft B738/M-SDE2E3FGHIRWXY/LB1

Departure

Time 2026-04-29 18:36
Airport Katowice Wojciech Korfanty International Airport (EPKT)

Arrival

Time 2026-04-29 20:53
Airport Dalaman International Airport (LTBS)
Time Latitude Longitude Altitude Speed Heading
2026-04-29 17:32 50.47182 19.07212 999 ft 0 kts 180°
2026-04-29 18:12 50.47190 19.07212 1001 ft 3 kts 180°
2026-04-29 18:12 50.47213 19.07212 999 ft 3 kts 180°
2026-04-29 18:13 50.47230 19.07212 998 ft 3 kts 157°
2026-04-29 18:13 50.47235 19.07198 997 ft 3 kts 90°
2026-04-29 18:13 50.47235 19.07175 997 ft 2 kts 90°
2026-04-29 18:13 50.47235 19.07173 997 ft 0 kts 90°
2026-04-29 18:17 50.47235 19.07174 997 ft 2 kts 90°
2026-04-29 18:17 50.47215 19.07215 999 ft 7 kts 184°
2026-04-29 18:17 50.47186 19.07212 997 ft 6 kts 181°
2026-04-29 18:18 50.47182 19.07212 997 ft 1 kts 181°
2026-04-29 18:25 50.47197 19.07212 1000 ft 3 kts 180°
2026-04-29 18:25 50.47216 19.07212 999 ft 3 kts 180°
2026-04-29 18:26 50.47232 19.07210 997 ft 3 kts 217°
2026-04-29 18:26 50.47235 19.07226 997 ft 3 kts 270°
2026-04-29 18:26 50.47235 19.07259 997 ft 2 kts 270°
2026-04-29 18:26 50.47235 19.07261 997 ft 0 kts 270°
2026-04-29 18:30 50.47235 19.07260 997 ft 0 kts 270°
2026-04-29 18:30 50.47235 19.07244 997 ft 3 kts 270°
2026-04-29 18:30 50.47235 19.07201 999 ft 5 kts 270°
2026-04-29 18:31 50.47235 19.07133 1002 ft 7 kts 270°
2026-04-29 18:31 50.47235 19.07039 1000 ft 10 kts 270°
2026-04-29 18:31 50.47236 19.06922 1000 ft 12 kts 270°
2026-04-29 18:31 50.47236 19.06784 997 ft 13 kts 270°
2026-04-29 18:32 50.47254 19.06647 998 ft 13 kts 314°
2026-04-29 18:32 50.47418 19.06584 1003 ft 12 kts 302°
2026-04-29 18:32 50.47428 19.06445 995 ft 14 kts 270°
2026-04-29 18:33 50.47428 19.06275 994 ft 16 kts 270°
2026-04-29 18:33 50.47429 19.06090 992 ft 16 kts 270°
2026-04-29 18:33 50.47482 19.05979 991 ft 9 kts 352°
2026-04-29 18:33 50.47505 19.05979 998 ft 0 kts
2026-04-29 18:34 50.47511 19.05979 997 ft 2 kts
2026-04-29 18:35 50.47540 19.05980 994 ft 6 kts
2026-04-29 18:35 50.47578 19.05981 997 ft 6 kts
2026-04-29 18:35 50.47603 19.06014 1000 ft 6 kts 85°
2026-04-29 18:35 50.47604 19.06027 994 ft 3 kts 89°
2026-04-29 18:36 50.47604 19.06392 994 ft 68 kts 90°
2026-04-29 18:36 50.47602 19.07489 999 ft 131 kts 90°
2026-04-29 18:36 50.47592 19.09183 1100 ft 173 kts 90°
2026-04-29 18:36 50.47552 19.11123 1775 ft 181 kts 91°
2026-04-29 18:37 50.47505 19.13068 2725 ft 177 kts 91°
2026-04-29 18:37 50.47465 19.15033 3447 ft 185 kts 90°
2026-04-29 18:37 50.47416 19.17121 4017 ft 199 kts 91°
2026-04-29 18:37 50.47358 19.19389 4339 ft 219 kts 91°
2026-04-29 18:38 50.47303 19.21865 4762 ft 234 kts 89°
2026-04-29 18:38 50.47261 19.24530 5153 ft 256 kts 90°
2026-04-29 18:38 50.47195 19.27394 5772 ft 267 kts 90°
2026-04-29 18:38 50.47113 19.30293 6609 ft 269 kts 90°
2026-04-29 18:39 50.46964 19.33221 7455 ft 273 kts 92°
2026-04-29 18:39 50.46749 19.36235 8100 ft 282 kts 92°
2026-04-29 18:39 50.46504 19.39323 8840 ft 288 kts 94°
2026-04-29 18:39 50.46219 19.42457 9625 ft 292 kts 93°
2026-04-29 18:40 50.45922 19.45649 10276 ft 299 kts 93°
2026-04-29 18:40 50.45608 19.48896 10371 ft 305 kts 93°
2026-04-29 18:40 50.45279 19.52189 10310 ft 304 kts 92°
2026-04-29 18:40 50.45440 19.55352 10290 ft 284 kts 62°
2026-04-29 18:41 50.47096 19.64267 10300 ft 294 kts 80°
2026-04-29 18:41 50.47212 19.67526 10360 ft 307 kts 82°
2026-04-29 18:42 50.47266 19.70997 10544 ft 330 kts 84°
2026-04-29 18:42 50.47273 19.74695 10941 ft 345 kts 85°
2026-04-29 18:42 50.47252 19.78513 11552 ft 353 kts 86°
2026-04-29 18:42 50.47220 19.82393 12232 ft 358 kts 86°
2026-04-29 18:43 50.47136 19.86330 12872 ft 368 kts 94°
2026-04-29 18:43 50.46300 19.90194 13469 ft 382 kts 120°
2026-04-29 18:43 50.44543 19.93328 14160 ft 387 kts 143°
2026-04-29 18:43 50.42367 19.95736 14787 ft 390 kts 147°
2026-04-29 18:44 50.40101 19.98113 15396 ft 395 kts 148°
2026-04-29 18:44 50.37801 20.00508 15997 ft 399 kts 147°
2026-04-29 18:44 50.35476 20.02946 16627 ft 403 kts 147°
2026-04-29 18:44 50.33128 20.05431 17250 ft 407 kts 147°
2026-04-29 18:45 50.30784 20.07927 17871 ft 412 kts 147°
2026-04-29 18:45 50.28410 20.10466 18453 ft 416 kts 147°
2026-04-29 18:45 50.26027 20.13015 19107 ft 416 kts 147°
2026-04-29 18:45 50.23624 20.15584 19682 ft 419 kts 147°
2026-04-29 18:46 50.21201 20.18172 20114 ft 426 kts 147°
2026-04-29 18:46 50.18742 20.20794 20638 ft 429 kts 147°
2026-04-29 18:46 50.16269 20.23425 21201 ft 431 kts 147°
2026-04-29 18:46 50.13747 20.25972 21739 ft 433 kts 155°
2026-04-29 18:47 50.10966 20.27761 22229 ft 432 kts 165°
2026-04-29 18:47 50.08147 20.29224 22734 ft 435 kts 165°
2026-04-29 18:47 50.05265 20.30702 23222 ft 439 kts 165°
2026-04-29 18:47 50.02352 20.32252 23272 ft 445 kts 164°
2026-04-29 18:48 49.99439 20.33864 23261 ft 442 kts 163°
2026-04-29 18:48 49.96568 20.35476 23273 ft 437 kts 163°
2026-04-29 18:48 49.93711 20.37080 23283 ft 437 kts 163°
2026-04-29 18:48 49.90847 20.38677 23367 ft 437 kts 163°
2026-04-29 18:49 49.87987 20.40267 23718 ft 439 kts 164°
2026-04-29 18:49 49.85091 20.41872 24060 ft 445 kts 163°
2026-04-29 18:49 49.82194 20.43606 24482 ft 448 kts 161°
2026-04-29 18:49 49.79356 20.45487 24935 ft 450 kts 159°
2026-04-29 18:50 49.76491 20.47462 25330 ft 453 kts 159°
2026-04-29 18:50 49.73602 20.49470 25670 ft 456 kts 159°
2026-04-29 18:50 49.70697 20.51478 26125 ft 457 kts 159°
2026-04-29 18:50 49.67785 20.53471 26515 ft 459 kts 160°
2026-04-29 18:51 49.64848 20.55461 26868 ft 463 kts 160°
2026-04-29 18:51 49.61889 20.57452 27208 ft 466 kts 160°
2026-04-29 18:51 49.58905 20.59451 27573 ft 469 kts 160°
2026-04-29 18:51 49.55911 20.61450 27934 ft 471 kts 161°
2026-04-29 18:52 49.52895 20.63462 28299 ft 473 kts 161°
2026-04-29 18:52 49.49861 20.65483 28635 ft 476 kts 161°
2026-04-29 18:52 49.46859 20.67479 28951 ft 478 kts 161°
2026-04-29 18:52 49.43797 20.69515 29265 ft 480 kts 161°
2026-04-29 18:53 49.40730 20.71551 29634 ft 481 kts 161°
2026-04-29 18:53 49.37658 20.73588 29928 ft 483 kts 161°
2026-04-29 18:53 49.34559 20.75640 30182 ft 486 kts 161°
2026-04-29 18:53 49.31443 20.77700 30442 ft 488 kts 161°
2026-04-29 18:54 49.28324 20.79760 30718 ft 489 kts 161°
2026-04-29 18:54 49.25202 20.81818 31060 ft 489 kts 161°
2026-04-29 18:54 49.22078 20.83877 31438 ft 488 kts 161°
2026-04-29 18:54 49.18964 20.85925 31738 ft 488 kts 162°
2026-04-29 18:55 49.15835 20.87979 32019 ft 489 kts 162°
2026-04-29 18:55 49.12759 20.89997 32334 ft 489 kts 162°
2026-04-29 18:55 49.09591 20.92072 32670 ft 488 kts 162°
2026-04-29 18:55 49.06509 20.94087 32968 ft 488 kts 162°
2026-04-29 18:56 49.03390 20.96124 33240 ft 488 kts 162°
2026-04-29 18:56 49.00253 20.98168 33279 ft 493 kts 162°
2026-04-29 18:56 48.93934 21.02278 33268 ft 492 kts 162°
2026-04-29 18:57 48.87681 21.06343 33281 ft 487 kts 162°
2026-04-29 18:57 48.81424 21.10390 33250 ft 490 kts 162°
2026-04-29 18:58 48.75183 21.14416 33250 ft 491 kts 162°
2026-04-29 18:58 48.68887 21.18469 33233 ft 492 kts 162°
2026-04-29 18:59 48.62587 21.22516 33236 ft 492 kts 163°
2026-04-29 18:59 48.56286 21.26552 33261 ft 492 kts 163°
2026-04-29 19:00 48.49967 21.30601 33243 ft 494 kts 162°
2026-04-29 19:00 48.43655 21.34736 33222 ft 495 kts 162°
2026-04-29 19:01 48.37392 21.38860 33249 ft 494 kts 162°
2026-04-29 19:01 48.34256 21.40920 33480 ft 493 kts 162°
2026-04-29 19:01 48.31101 21.42984 33674 ft 495 kts 163°
2026-04-29 19:02 48.27936 21.45047 33883 ft 496 kts 163°
2026-04-29 19:02 48.25835 21.46415 34043 ft 497 kts 163°
2026-04-29 19:02 48.21590 21.49175 34377 ft 497 kts 163°
2026-04-29 19:02 48.18428 21.51230 34667 ft 495 kts 162°
2026-04-29 19:03 48.15275 21.53277 34981 ft 492 kts 162°
2026-04-29 19:03 48.12182 21.55282 35212 ft 491 kts 162°
2026-04-29 19:03 48.05860 21.59362 35216 ft 496 kts 162°
2026-04-29 19:04 47.99546 21.63434 35203 ft 491 kts 163°
2026-04-29 19:04 47.93290 21.67458 35234 ft 489 kts 162°
2026-04-29 19:05 47.87090 21.71432 35174 ft 488 kts 163°
2026-04-29 19:05 47.80861 21.75415 35191 ft 487 kts 163°
2026-04-29 19:06 47.74625 21.79389 35191 ft 488 kts 163°
2026-04-29 19:07 47.65225 21.85362 35188 ft 492 kts 163°
2026-04-29 19:07 47.58920 21.89356 35182 ft 494 kts 163°
2026-04-29 19:08 47.52624 21.93334 35196 ft 496 kts 163°
2026-04-29 19:08 47.46255 21.97348 35191 ft 499 kts 163°
2026-04-29 19:09 47.39857 22.01371 35181 ft 500 kts 163°
2026-04-29 19:09 47.33441 22.05394 35171 ft 501 kts 163°
2026-04-29 19:10 47.27067 22.09381 35191 ft 502 kts 163°
2026-04-29 19:10 47.20628 22.13396 35181 ft 503 kts 163°
2026-04-29 19:11 47.14176 22.17409 35178 ft 504 kts 163°
2026-04-29 19:11 47.07726 22.21411 35170 ft 503 kts 163°
2026-04-29 19:12 47.01316 22.25378 35177 ft 503 kts 163°
2026-04-29 19:12 46.94865 22.29358 35177 ft 503 kts 163°
2026-04-29 19:13 46.88411 22.33330 35176 ft 503 kts 163°
2026-04-29 19:13 46.81962 22.37290 35153 ft 502 kts 163°
2026-04-29 19:14 46.75532 22.41228 35178 ft 501 kts 163°
2026-04-29 19:14 46.69143 22.45129 35182 ft 501 kts 163°
2026-04-29 19:15 46.62716 22.49043 35185 ft 501 kts 163°
2026-04-29 19:15 46.56286 22.52949 35197 ft 501 kts 163°
2026-04-29 19:16 46.49861 22.56843 35189 ft 501 kts 163°
2026-04-29 19:16 46.43478 22.60704 35197 ft 500 kts 163°
2026-04-29 19:17 46.37056 22.64576 35204 ft 500 kts 163°
2026-04-29 19:17 46.30644 22.68430 35191 ft 498 kts 163°
2026-04-29 19:18 46.24248 22.72270 35194 ft 497 kts 163°
2026-04-29 19:18 46.17857 22.76088 35192 ft 498 kts 163°
2026-04-29 19:19 46.11497 22.79883 35169 ft 499 kts 163°
2026-04-29 19:19 46.05084 22.83702 35182 ft 500 kts 162°
2026-04-29 19:20 45.98651 22.87524 35175 ft 500 kts 162°
2026-04-29 19:20 45.92203 22.91344 35184 ft 502 kts 162°
2026-04-29 19:21 45.85742 22.95164 35147 ft 502 kts 163°
2026-04-29 19:21 45.79273 22.98620 35171 ft 497 kts 169°
2026-04-29 19:22 45.72648 23.01360 35169 ft 495 kts 171°
2026-04-29 19:22 45.66027 23.04002 35172 ft 494 kts 170°
2026-04-29 19:23 45.59473 23.06686 35167 ft 488 kts 170°
2026-04-29 19:23 45.53012 23.09387 35171 ft 481 kts 170°
2026-04-29 19:24 45.46569 23.12072 35165 ft 483 kts 170°
2026-04-29 19:24 45.40111 23.14752 35109 ft 484 kts 170°
2026-04-29 19:25 45.33669 23.17444 35163 ft 481 kts 170°
2026-04-29 19:25 45.27272 23.20073 35148 ft 483 kts 170°
2026-04-29 19:26 45.20818 23.22732 35144 ft 484 kts 170°
2026-04-29 19:26 45.14352 23.25396 35118 ft 483 kts 170°
2026-04-29 19:27 45.07912 23.28044 35130 ft 482 kts 170°
2026-04-29 19:27 45.01479 23.30680 35129 ft 481 kts 170°
2026-04-29 19:28 44.95098 23.33288 35143 ft 480 kts 170°
2026-04-29 19:28 44.88689 23.35902 35125 ft 479 kts 170°
2026-04-29 19:29 44.82279 23.38510 35126 ft 479 kts 170°
2026-04-29 19:29 44.75882 23.41106 35131 ft 478 kts 169°
2026-04-29 19:30 44.69528 23.43681 35102 ft 478 kts 170°
2026-04-29 19:30 44.63141 23.46262 35114 ft 478 kts 170°
2026-04-29 19:31 44.56752 23.48837 35121 ft 477 kts 170°
2026-04-29 19:31 44.50371 23.51404 35116 ft 477 kts 170°
2026-04-29 19:32 44.44035 23.53947 35117 ft 476 kts 170°
2026-04-29 19:32 44.37659 23.56501 35111 ft 477 kts 170°
2026-04-29 19:33 44.31289 23.59045 35094 ft 476 kts 170°
2026-04-29 19:33 44.24914 23.61586 35119 ft 476 kts 170°
2026-04-29 19:34 44.18537 23.64123 35117 ft 476 kts 170°
2026-04-29 19:34 44.12208 23.66635 35120 ft 476 kts 170°
2026-04-29 19:35 44.05840 23.69156 35118 ft 476 kts 170°
2026-04-29 19:35 43.99467 23.71675 35114 ft 475 kts 170°
2026-04-29 19:36 43.93112 23.74180 35108 ft 476 kts 170°
2026-04-29 19:36 43.86736 23.76688 35114 ft 475 kts 170°
2026-04-29 19:37 43.80415 23.79170 35097 ft 476 kts 170°
2026-04-29 19:37 43.74051 23.81673 35102 ft 476 kts 170°
2026-04-29 19:38 43.67689 23.84192 35113 ft 476 kts 170°
2026-04-29 19:38 43.61326 23.86710 35123 ft 476 kts 170°
2026-04-29 19:39 43.55010 23.89202 35114 ft 475 kts 170°
2026-04-29 19:39 43.48648 23.91704 35123 ft 475 kts 170°
2026-04-29 19:40 43.42285 23.94201 35120 ft 476 kts 170°
2026-04-29 19:40 43.35924 23.96692 35110 ft 475 kts 169°
2026-04-29 19:41 43.29612 23.99158 35122 ft 474 kts 169°
2026-04-29 19:41 43.23263 24.01634 35125 ft 474 kts 169°
2026-04-29 19:42 43.16924 24.04100 35107 ft 473 kts 169°
2026-04-29 19:42 43.10591 24.06558 35124 ft 473 kts 169°
2026-04-29 19:43 43.04268 24.09007 35128 ft 472 kts 169°
2026-04-29 19:43 42.97999 24.11431 35141 ft 471 kts 169°
2026-04-29 19:44 42.91690 24.13865 35139 ft 471 kts 169°
2026-04-29 19:44 42.85388 24.16290 35141 ft 471 kts 169°
2026-04-29 19:45 42.79088 24.18708 35148 ft 470 kts 169°
2026-04-29 19:45 42.72837 24.21100 35131 ft 470 kts 169°
2026-04-29 19:46 42.66553 24.23508 35153 ft 469 kts 169°
2026-04-29 19:46 42.60266 24.25908 35151 ft 469 kts 169°
2026-04-29 19:47 42.53980 24.28302 35138 ft 469 kts 169°
2026-04-29 19:47 42.47700 24.30688 35160 ft 468 kts 169°
2026-04-29 19:48 42.41465 24.33052 35168 ft 468 kts 169°
2026-04-29 19:48 42.35188 24.35429 35170 ft 469 kts 169°
2026-04-29 19:49 42.28905 24.37802 35166 ft 469 kts 169°
2026-04-29 19:49 42.22625 24.40169 35178 ft 469 kts 169°
2026-04-29 19:50 42.16336 24.42535 35178 ft 469 kts 169°
2026-04-29 19:50 42.10092 24.44879 35174 ft 470 kts 169°
2026-04-29 19:51 42.03794 24.47238 35169 ft 470 kts 169°
2026-04-29 19:51 41.97477 24.49599 35183 ft 472 kts 169°
2026-04-29 19:52 41.92221 24.51559 35174 ft 473 kts 169°
2026-04-29 19:52 41.84808 24.54322 35176 ft 472 kts 169°
2026-04-29 19:53 41.78531 24.56654 35178 ft 471 kts 169°
2026-04-29 19:53 41.72202 24.59001 35187 ft 471 kts 169°
2026-04-29 19:54 41.62746 24.62499 35172 ft 469 kts 169°
2026-04-29 19:54 41.56459 24.64818 35175 ft 468 kts 169°
2026-04-29 19:55 41.50231 24.67113 35195 ft 467 kts 169°
2026-04-29 19:55 41.44003 24.69624 35168 ft 471 kts 160°
2026-04-29 19:56 41.38401 24.74224 35172 ft 478 kts 141°
2026-04-29 19:56 41.34286 24.79143 35173 ft 478 kts 140°
2026-04-29 19:57 41.29370 24.85102 35172 ft 478 kts 140°
2026-04-29 19:57 41.23613 24.91955 35150 ft 478 kts 141°
2026-04-29 19:58 41.19480 24.96820 35163 ft 477 kts 141°
2026-04-29 19:58 41.14505 25.02656 35159 ft 477 kts 141°
2026-04-29 19:59 41.09533 25.08481 35165 ft 476 kts 141°
2026-04-29 19:59 41.03763 25.15229 35158 ft 476 kts 141°
2026-04-29 20:00 40.99622 25.20063 35162 ft 476 kts 141°
2026-04-29 20:00 40.94642 25.25866 35150 ft 476 kts 141°
2026-04-29 20:01 40.92202 25.28704 35155 ft 476 kts 141°
2026-04-29 20:01 40.88238 25.33297 35155 ft 476 kts 141°
2026-04-29 20:02 40.83378 25.38944 35156 ft 476 kts 141°
2026-04-29 20:02 40.80625 25.42133 35157 ft 476 kts 141°
2026-04-29 20:03 40.78929 25.44171 35161 ft 477 kts 136°
2026-04-29 20:03 40.78382 25.44899 35130 ft 478 kts 135°
2026-04-29 20:04 40.75586 25.48920 35141 ft 478 kts 132°
2026-04-29 20:04 40.71347 25.55591 35152 ft 478 kts 131°
2026-04-29 20:05 40.67075 25.62298 35151 ft 477 kts 131°
2026-04-29 20:05 40.62756 25.68924 35159 ft 477 kts 132°
2026-04-29 20:06 40.58410 25.75531 35155 ft 477 kts 132°
2026-04-29 20:06 40.54096 25.82084 35159 ft 477 kts 132°
2026-04-29 20:07 40.49755 25.88668 35154 ft 477 kts 132°
2026-04-29 20:07 40.45390 25.95218 35149 ft 476 kts 133°
2026-04-29 20:08 40.41764 26.00625 35154 ft 476 kts 133°
2026-04-29 20:08 40.36666 26.08220 35138 ft 476 kts 133°
2026-04-29 20:09 40.32299 26.14719 35142 ft 475 kts 133°
2026-04-29 20:09 40.27926 26.21215 35143 ft 475 kts 133°
2026-04-29 20:10 40.23555 26.27694 35134 ft 474 kts 133°
2026-04-29 20:10 40.19185 26.34160 35130 ft 474 kts 133°
2026-04-29 20:11 40.14840 26.40576 35131 ft 474 kts 133°
2026-04-29 20:11 40.10329 26.46842 35136 ft 473 kts 137°
2026-04-29 20:12 40.05604 26.52820 35123 ft 473 kts 137°
2026-04-29 20:12 40.00875 26.58780 35128 ft 473 kts 137°
2026-04-29 20:13 39.96204 26.64728 35137 ft 473 kts 137°
2026-04-29 20:13 39.91510 26.70722 35143 ft 473 kts 137°
2026-04-29 20:14 39.86803 26.76721 35134 ft 473 kts 137°
2026-04-29 20:14 39.82093 26.82710 35121 ft 474 kts 137°
2026-04-29 20:15 39.77368 26.88705 35120 ft 475 kts 137°
2026-04-29 20:15 39.72624 26.94607 35103 ft 475 kts 138°
2026-04-29 20:16 39.67813 27.00489 35109 ft 475 kts 138°
2026-04-29 20:16 39.63000 27.06378 35108 ft 475 kts 138°
2026-04-29 20:17 39.58190 27.12270 35101 ft 476 kts 138°
2026-04-29 20:17 39.53376 27.18157 35106 ft 476 kts 138°
2026-04-29 20:18 39.48382 27.23653 35106 ft 473 kts 150°
2026-04-29 20:18 39.42673 27.27821 35103 ft 471 kts 154°
2026-04-29 20:19 39.36934 27.31881 35107 ft 470 kts 154°
2026-04-29 20:19 39.31213 27.35974 35096 ft 470 kts 153°
2026-04-29 20:20 39.25544 27.40066 35104 ft 470 kts 153°
2026-04-29 20:20 39.19845 27.44186 35092 ft 469 kts 153°
2026-04-29 20:21 39.14147 27.48298 35095 ft 470 kts 153°
2026-04-29 20:21 39.08436 27.52410 35083 ft 470 kts 153°
2026-04-29 20:22 39.02724 27.56514 35071 ft 471 kts 153°
2026-04-29 20:22 38.97047 27.60585 35057 ft 470 kts 153°
2026-04-29 20:23 38.91333 27.64674 35067 ft 470 kts 153°
2026-04-29 20:23 38.85618 27.68757 35066 ft 470 kts 153°
2026-04-29 20:24 38.79904 27.72832 35062 ft 470 kts 153°
2026-04-29 20:24 38.74181 27.76905 35055 ft 470 kts 153°
2026-04-29 20:25 38.68499 27.80942 35049 ft 470 kts 153°
2026-04-29 20:25 38.62773 27.85002 35050 ft 470 kts 153°
2026-04-29 20:26 38.57081 27.89034 35014 ft 459 kts 153°
2026-04-29 20:26 38.51589 27.92918 34992 ft 447 kts 153°
2026-04-29 20:27 38.48877 27.94832 34735 ft 442 kts 154°
2026-04-29 20:27 38.47110 27.96079 34599 ft 436 kts 153°
2026-04-29 20:27 38.43606 27.98547 34136 ft 433 kts 153°
2026-04-29 20:27 38.40977 28.00395 33755 ft 431 kts 153°
2026-04-29 20:28 38.38364 28.02233 33364 ft 428 kts 153°
2026-04-29 20:28 38.35762 28.04059 33001 ft 425 kts 153°
2026-04-29 20:28 38.33178 28.05874 32627 ft 423 kts 153°
2026-04-29 20:28 38.30611 28.07675 32268 ft 420 kts 153°
2026-04-29 20:29 38.28059 28.09464 31916 ft 418 kts 153°
2026-04-29 20:29 38.25515 28.11245 31559 ft 416 kts 153°
2026-04-29 20:29 38.22990 28.13013 31196 ft 413 kts 153°
2026-04-29 20:29 38.20513 28.14744 30850 ft 411 kts 153°
2026-04-29 20:30 38.18009 28.16494 30507 ft 409 kts 152°
2026-04-29 20:30 38.15518 28.18233 30172 ft 407 kts 152°
2026-04-29 20:30 38.13040 28.19961 29769 ft 406 kts 152°
2026-04-29 20:30 38.10577 28.21679 29371 ft 403 kts 152°
2026-04-29 20:31 38.08125 28.23387 28988 ft 400 kts 152°
2026-04-29 20:31 38.05694 28.25079 28616 ft 397 kts 152°
2026-04-29 20:31 38.03280 28.26758 28250 ft 395 kts 152°
2026-04-29 20:31 38.00876 28.28429 27882 ft 392 kts 152°
2026-04-29 20:32 37.98522 28.30064 27530 ft 390 kts 152°
2026-04-29 20:32 37.96149 28.31710 27170 ft 388 kts 152°
2026-04-29 20:32 37.93790 28.33346 26816 ft 386 kts 152°
2026-04-29 20:32 37.91440 28.34975 26458 ft 384 kts 152°
2026-04-29 20:33 37.89105 28.36591 26107 ft 382 kts 152°
2026-04-29 20:33 37.86776 28.38202 25762 ft 381 kts 152°
2026-04-29 20:33 37.84458 28.39805 25411 ft 379 kts 152°
2026-04-29 20:33 37.82139 28.41407 25041 ft 379 kts 152°
2026-04-29 20:34 37.79824 28.43006 24693 ft 379 kts 152°
2026-04-29 20:34 37.77545 28.44578 24315 ft 379 kts 152°
2026-04-29 20:34 37.75231 28.46174 23967 ft 379 kts 152°
2026-04-29 20:34 37.72921 28.47765 23596 ft 378 kts 152°
2026-04-29 20:35 37.70610 28.49356 23188 ft 377 kts 152°
2026-04-29 20:35 37.68309 28.50939 22816 ft 376 kts 152°
2026-04-29 20:35 37.66017 28.52515 22444 ft 374 kts 152°
2026-04-29 20:35 37.63738 28.54081 22096 ft 372 kts 152°
2026-04-29 20:36 37.61472 28.55638 21747 ft 370 kts 152°
2026-04-29 20:36 37.59216 28.57186 21400 ft 368 kts 152°
2026-04-29 20:36 37.56998 28.58708 21057 ft 367 kts 152°
2026-04-29 20:36 37.54760 28.60241 20711 ft 366 kts 152°
2026-04-29 20:37 37.52537 28.61761 20362 ft 362 kts 152°
2026-04-29 20:37 37.50181 28.62822 19991 ft 359 kts 174°
2026-04-29 20:37 37.47714 28.62759 19635 ft 354 kts 194°
2026-04-29 20:37 37.45349 28.61979 19313 ft 351 kts 198°
2026-04-29 20:38 37.43009 28.61110 18948 ft 349 kts 199°
2026-04-29 20:38 37.40686 28.60242 18618 ft 348 kts 198°
2026-04-29 20:38 37.38392 28.59401 18283 ft 348 kts 198°
2026-04-29 20:38 37.36076 28.58569 17889 ft 344 kts 198°
2026-04-29 20:39 37.33798 28.57763 17530 ft 337 kts 197°
2026-04-29 20:39 37.31548 28.56969 17203 ft 335 kts 197°
2026-04-29 20:39 37.29272 28.56366 16861 ft 336 kts 182°
2026-04-29 20:39 37.26969 28.56759 16582 ft 334 kts 166°
2026-04-29 20:40 37.24717 28.57486 16256 ft 334 kts 165°
2026-04-29 20:40 37.22476 28.58219 15951 ft 333 kts 166°
2026-04-29 20:40 37.20230 28.58943 15630 ft 332 kts 166°
2026-04-29 20:40 37.18027 28.59634 15319 ft 330 kts 166°
2026-04-29 20:41 37.15816 28.60381 15002 ft 328 kts 158°
2026-04-29 20:41 37.13934 28.61923 14703 ft 324 kts 132°
2026-04-29 20:41 37.12719 28.64244 14411 ft 316 kts 109°
2026-04-29 20:41 37.12257 28.66872 14122 ft 305 kts 90°
2026-04-29 20:42 37.12461 28.69469 13861 ft 296 kts 78°
2026-04-29 20:42 37.12837 28.72007 13555 ft 297 kts 77°
2026-04-29 20:42 37.13217 28.74548 13238 ft 297 kts 78°
2026-04-29 20:42 37.13586 28.77089 12944 ft 295 kts 78°
2026-04-29 20:43 37.13942 28.79581 12672 ft 294 kts 78°
2026-04-29 20:43 37.14296 28.82097 12393 ft 293 kts 78°
2026-04-29 20:43 37.14647 28.84602 12127 ft 291 kts 78°
2026-04-29 20:43 37.14995 28.87094 11843 ft 290 kts 78°
2026-04-29 20:44 37.15341 28.89576 11568 ft 288 kts 78°
2026-04-29 20:44 37.15684 28.92042 11303 ft 287 kts 79°
2026-04-29 20:44 37.15734 28.94527 11015 ft 288 kts 103°
2026-04-29 20:44 37.14870 28.96762 10731 ft 287 kts 130°
2026-04-29 20:45 37.13456 28.98514 10447 ft 286 kts 140°
2026-04-29 20:45 37.11952 29.00160 10127 ft 288 kts 140°
2026-04-29 20:45 37.10444 29.01815 9801 ft 289 kts 140°
2026-04-29 20:45 37.08944 29.03447 9444 ft 290 kts 144°
2026-04-29 20:46 37.07132 29.04468 9077 ft 284 kts 173°
2026-04-29 20:46 37.05208 29.04332 8717 ft 275 kts 198°
2026-04-29 20:46 37.03533 29.03304 8367 ft 266 kts 218°
2026-04-29 20:46 37.02176 29.01767 8020 ft 261 kts 225°
2026-04-29 20:47 37.00889 29.00199 7738 ft 253 kts 225°
2026-04-29 20:47 36.99673 28.98726 7624 ft 235 kts 225°
2026-04-29 20:47 36.98539 28.97356 7462 ft 220 kts 224°
2026-04-29 20:47 36.97430 28.96019 6863 ft 228 kts 224°
2026-04-29 20:48 36.96265 28.94624 6267 ft 235 kts 224°
2026-04-29 20:48 36.95070 28.93197 5645 ft 241 kts 224°
2026-04-29 20:48 36.93877 28.91737 5301 ft 238 kts 225°
2026-04-29 20:48 36.92721 28.90273 5024 ft 233 kts 225°
2026-04-29 20:49 36.91597 28.88847 4800 ft 227 kts 225°
2026-04-29 20:49 36.90504 28.87463 4574 ft 220 kts 225°
2026-04-29 20:49 36.89448 28.86129 4396 ft 212 kts 225°
2026-04-29 20:49 36.88331 28.84975 4070 ft 210 kts 203°
2026-04-29 20:50 36.86933 28.84535 3794 ft 206 kts 192°
2026-04-29 20:50 36.85560 28.84088 3426 ft 206 kts 195°
2026-04-29 20:50 36.84190 28.83616 3057 ft 202 kts 195°
2026-04-29 20:50 36.82861 28.83161 2713 ft 194 kts 195°
2026-04-29 20:51 36.81574 28.82724 2378 ft 189 kts 194°
2026-04-29 20:51 36.80328 28.82301 2038 ft 182 kts 194°
2026-04-29 20:51 36.79138 28.81897 1728 ft 173 kts 194°
2026-04-29 20:51 36.78023 28.81527 1468 ft 160 kts 193°
2026-04-29 20:52 36.76964 28.81196 1208 ft 157 kts 194°
2026-04-29 20:52 36.75914 28.80822 901 ft 156 kts 197°
2026-04-29 20:52 36.74886 28.80449 569 ft 154 kts 195°
2026-04-29 20:52 36.73868 28.80109 309 ft 148 kts 194°
2026-04-29 20:53 36.72891 28.79790 106 ft 142 kts 195°
2026-04-29 20:53 36.71939 28.79472 12 ft 135 kts 194°
2026-04-29 20:53 36.71182 28.79206 12 ft 91 kts 195°
2026-04-29 20:53 36.70718 28.79048 12 ft 47 kts 195°
2026-04-29 20:54 36.70412 28.78865 12 ft 17 kts 240°
2026-04-29 20:54 36.70361 28.78754 12 ft 10 kts 237°
2026-04-29 20:54 36.70378 28.78718 12 ft 9 kts 27°
2026-04-29 20:55 36.70440 28.78741 12 ft 11 kts 15°
2026-04-29 20:55 36.70530 28.78771 12 ft 15 kts 15°
2026-04-29 20:55 36.70642 28.78810 12 ft 18 kts 15°
2026-04-29 20:55 36.70775 28.78855 12 ft 22 kts 14°
2026-04-29 20:56 36.70918 28.78902 12 ft 20 kts 15°
2026-04-29 20:56 36.71042 28.78944 12 ft 18 kts 15°
2026-04-29 20:56 36.71161 28.78985 12 ft 17 kts 15°
2026-04-29 20:56 36.71268 28.79023 12 ft 13 kts 16°
2026-04-29 20:57 36.71332 28.78978 12 ft 13 kts 288°
2026-04-29 20:57 36.71353 28.78870 12 ft 13 kts 283°
2026-04-29 20:57 36.71371 28.78841 12 ft 3 kts 349°
2026-04-29 20:57 36.71412 28.78847 12 ft 8 kts 14°
2026-04-29 20:58 36.71480 28.78870 11 ft 14 kts 15°
2026-04-29 20:58 36.71590 28.78908 11 ft 16 kts 15°
2026-04-29 20:58 36.71673 28.78933 13 ft 9 kts 355°
2026-04-29 20:58 36.71699 28.78871 13 ft 9 kts 285°
2026-04-29 20:59 36.71705 28.78847 11 ft 0 kts 286°